Location: Memphis International Airport Police
(35.0443°N, 89.9815°W)
Time: 18:06:01
(UTC+00:00)

USA 215 - Pass Details

Date: 26 September 2023
Orbit: 1098 x 1109 km, 123.0° (Epoch: 06 December)

Event Time Altitude Azimuth Distance (km) Brightness Sun altitude
Rises 00:17:35 0° 50° (NE) 3,926 5.7 -5.9°
Reaches altitude 10° 00:20:14 10° 58° (ENE) 2,967 5.0 -6.5°
Maximum altitude 00:26:23 42° 127° (SE) 1,532 3.7 -7.7°
Drops below altitude 10° 00:32:30 10° 196° (SSW) 2,960 5.7 -9.0°
Sets 00:35:08 0° 203° (SSW) 3,916 6.4 -9.5°
